Weather Roundup
Issued by NWS

Home | Current Version | Previous Version | Graphics & Text | Print | Product List | Glossary Off
Versions: 1 2 3 4 5 6 7 8 9 10 11 12 13 14 15 16 17 18 19 20 21 22 23 24 25 26 27 28 29 30 31 32 33 34 35 36 37 38 39 40 41 42 43 44 45 46 47 48 49 50

000
NZUS93 KARX 290810
HRRWXR

CURRENT HOURLY OBSERVATIONS ACROSS
MUCH OF THE UPPER MISSISSIPPI VALLEY
NATIONAL WEATHER SERVICE LA CROSSE WI
300 AM CDT FRI AUG 29 2014


...SOUTHEAST MINNESOTA...


CITY           SKY/WX    TMP DP  RH WIND       PRES   REMARKS
ROCHESTER      LGT RAIN  68  66  93 S10       29.88F FOG
ROCHESTER/MAYO CLOUDY    67  66  97 SE6       29.88F
WINONA         CLOUDY    63  63 100 SE7       29.89F THUNDER
AUSTIN         LGT RAIN  68  68 100 S7        29.86F
ALBERT LEA     LGT RAIN  70  68  94 S13       29.85F
DODGE CENTER   CLOUDY    70  66  88 S12       29.86F
PRESTON        LGT RAIN  67  67 100 CALM      29.90F
OWATONNA       CLOUDY    70  66  88 S8        29.85S
FARIBAULT      CLOUDY    72  64  78 SE7       29.84F
$$

...ELSEWHERE IN MINNESOTA...


CITY           SKY/WX    TMP DP  RH WIND       PRES   REMARKS
MINNEAPOLIS    CLOUDY    67  66  97 SE12      29.82F THUNDER
INTNL FALLS    CLOUDY    60  59  96 CALM      29.87S
DULUTH         CLOUDY    61  56  83 SE8       29.89F
RED WING       TSTM      66  64  94 SE7       29.86S
REDWOOD FALLS  FOG       67  67 100 SE9       29.79F VSB 1/4
MANKATO        CLOUDY    75  66  73 S10       29.82F
WORTHINGTON    CLOUDY    72  72 100 S10       29.83F
FAIRMONT       CLOUDY    68  66  94 S15G21    29.82F
$$

...SOUTHWEST WISCONSIN...


CITY           SKY/WX    TMP DP  RH WIND       PRES   REMARKS
LA CROSSE      CLOUDY    66  61  84 E7        29.91S
PRAIRIE DU CHI CLOUDY    67  64  88 E3        29.91F
BOSCOBEL       CLOUDY    68  63  84 VRB5      29.92F
LONE ROCK      MOCLDY    68  62  81 E5        29.93F
PLATTEVILLE    MOCLDY    64  63  96 CALM      29.94F
FORT MC COY    CLOUDY    61  59  91 CALM      29.94S
CAMP DOUGLAS   CLOUDY    59  59 100 E6        29.94F
VIROQUA        CLOUDY    64  64 100 S6        29.93S
WIS DELLS      MOCLDY    65  60  84 S7        29.94F
$$

...ELSEWHERE IN WISCONSIN...


CITY           SKY/WX    TMP DP  RH WIND       PRES   REMARKS
MILWAUKEE      PTCLDY    69  65  86 SE8       29.97F
MADISON        PTCLDY    65  61  87 SE7       29.95F
GREEN BAY      HVY RAIN  61  59  93 E7        30.01F FOG
EAU CLAIRE     CLOUDY    60  58  92 SE10      29.91F
BLACK RVR FLS  CLOUDY    59  59 100 NE3       29.93F
MEDFORD        DRIZZLE   55  55  99 SE7       29.96F
WAUSAU         RAIN      57  56  96 E9        29.96F FOG
WIS RAPIDS     CLOUDY    59  58  96 E5        29.97F
MARSHFIELD     CLOUDY    57  56  96 E8        29.96F
RICE LAKE      CLOUDY    63  58  83 SE13G22   29.91F
$$

...NORTHEAST IOWA...


CITY           SKY/WX    TMP DP  RH WIND       PRES   REMARKS
WATERLOO       LGT RAIN  69  67  93 S9        29.91F
DUBUQUE        CLOUDY    67  66  97 S12       29.94F FOG
DECORAH        CLOUDY    68  68 100 S7G13     29.91S
MASON CITY     CLOUDY    69  68  96 S9        29.88F
CHARLES CITY   LGT RAIN  68  68 100 S9G15     29.90F
OELWEIN        CLOUDY    68  68 100 S9        29.94F FOG
$$

...ELSEWHERE IN IOWA...


CITY           SKY/WX    TMP DP  RH WIND       PRES   REMARKS
DES MOINES     CLOUDY    69  66  90 SE10      29.87F
IOWA CITY      CLEAR     67  67 100 SE6       29.93F
FORT DODGE     CLOUDY    68  66  94 S6        29.86F
MARSHALLTOWN   LGT RAIN  68  67  96 SE5       29.90F
CEDAR RAPIDS   CLEAR     68  68 100 S7        29.91F
$$

...NORTHERN ILLINOIS...


CITY           SKY/WX    TMP DP  RH WIND       PRES   REMARKS
CHICAGO-OHARE  CLOUDY    71  63  75 S8        29.97F
DUPAGE         CLOUDY    69  66  90 S5        29.98S
CHICAGO-MIDWAY CLOUDY    73  66  78 S9        29.98S
MOLINE         MOCLDY    71  67  87 SE3       29.93F
ROCKFORD       MOCLDY    67  65  93 S7        29.97F FOG
STERLING       PTCLDY    64  63  94 SE3       29.95F
PEORIA         MOCLDY    72  68  87 S5        29.96F
$$

NOTE: "FAIR" INDICATES FEW OR NO CLOUDS BELOW 12,000 FEET WITH NO
SIGNIFICANT WEATHER AND/OR OBSTRUCTIONS TO VISIBILITY. WIND
SPEEDS ARE IN MILES-PER-HOUR.



USA.gov is the U.S. government's official web portal to all federal, state and local government web resources and services.